2023/01/13 00:00:00,67.6, 3.1
2023/01/13 00:10:00,67.6, 3.1
2023/01/13 00:20:00,67.6, 3.3
2023/01/13 00:30:00,67.6, 3.2
2023/01/13 00:40:00,67.6, 3.2
2023/01/13 00:50:00,67.5, 3.3
2023/01/13 01:00:00,67.5, 3.4
2023/01/13 01:10:00,67.5, 3.2
2023/01/13 01:20:00,67.4, 3.2
2023/01/13 01:30:00,67.4, 3.2
2023/01/13 01:40:00,67.5, 3.2
2023/01/13 01:50:00,67.5, 3.2
2023/01/13 02:00:00,67.4, 3.2
2023/01/13 02:10:00,67.4, 2.9
2023/01/13 02:20:00,67.4, 3.0
2023/01/13 02:30:00,67.4, 3.1
2023/01/13 02:40:00,67.4, 3.4
2023/01/13 02:50:00,67.3, 3.2
2023/01/13 03:00:00,67.3, 2.7
2023/01/13 03:10:00,67.3, 3.4
2023/01/13 03:20:00,67.2, 3.5
2023/01/13 03:30:00,67.3, 3.7
2023/01/13 03:40:00,67.3, 3.9
2023/01/13 03:50:00,67.3, 4.4
2023/01/13 04:00:00,67.3, 4.6
2023/01/13 04:10:00,67.2, 4.9
2023/01/13 04:20:00,67.0, 5.3
2023/01/13 04:30:00,67.1, 5.3
2023/01/13 04:40:00,67.1, 5.0
2023/01/13 04:50:00,67.1, 5.2
2023/01/13 05:00:00,67.1, 4.1
2023/01/13 05:10:00,67.0, 4.8
2023/01/13 05:20:00,66.8, 4.5
2023/01/13 05:30:00,66.8, 3.6
2023/01/13 05:40:00,66.8, 4.6
2023/01/13 05:50:00,66.7, 3.9
2023/01/13 06:00:00,66.8, 3.7
2023/01/13 06:10:00,66.9, 3.9
2023/01/13 06:20:00,66.8, 3.9
2023/01/13 06:30:00,66.6, 3.7
2023/01/13 06:40:00,66.7, 3.5
2023/01/13 06:50:00,66.7, 3.8
2023/01/13 07:00:00,66.6, 3.3
2023/01/13 07:10:00,66.7, 3.5
2023/01/13 07:20:00,66.7, 3.5
2023/01/13 07:30:00,66.5, 3.6
2023/01/13 07:40:00,66.5, 3.7
2023/01/13 07:50:00,66.3, 3.9
2023/01/13 08:00:00,66.2, 4.4
2023/01/13 08:10:00,66.0, 4.4
2023/01/13 08:20:00,66.0, 4.6
2023/01/13 08:30:00,65.9, 5.1
2023/01/13 08:40:00,65.9, 6.0
2023/01/13 08:50:00,65.7, 5.9
2023/01/13 09:00:00,65.5, 6.1
2023/01/13 09:10:00,65.5, 7.6
2023/01/13 09:20:00,65.4, 7.6
2023/01/13 09:30:00,65.4, 7.6
2023/01/13 09:40:00,65.4, 7.7
2023/01/13 09:50:00,65.4, 8.5
2023/01/13 10:00:00,65.4, 9.0
2023/01/13 10:10:00,65.4, 8.8
2023/01/13 10:20:00,65.4, 9.0
2023/01/13 10:30:00,65.0, 9.1
2023/01/13 10:40:00,65.0, 9.2
2023/01/13 10:50:00,64.9, 9.6
2023/01/13 11:00:00,64.8, 9.4
2023/01/13 11:10:00,64.7, 9.4
2023/01/13 11:20:00,64.6, 9.0
2023/01/13 11:30:00,64.4, 8.9
2023/01/13 11:40:00,64.2, 9.1
2023/01/13 11:50:00,63.9, 8.8
2023/01/13 12:00:00,63.7, 8.6
2023/01/13 12:10:00,63.7, 8.5
2023/01/13 12:20:00,63.2, 8.6
2023/01/13 12:30:00,62.9, 8.6
2023/01/13 12:40:00,62.8, 7.8
2023/01/13 12:50:00,62.8, 8.0
2023/01/13 13:00:00,62.8, 8.4
2023/01/13 13:10:00,62.7, 8.6
2023/01/13 13:20:00,62.5, 9.1
2023/01/13 13:30:00,62.6, 8.9
2023/01/13 13:40:00,62.8, 8.6
2023/01/13 13:50:00,62.6, 8.7
2023/01/13 14:00:00,62.5, 8.1
2023/01/13 14:10:00,61.8, 8.0
2023/01/13 14:20:00,61.7, 7.8
2023/01/13 14:30:00,61.7, 7.3
2023/01/13 14:40:00,61.5, 7.1
2023/01/13 14:50:00,61.5, 7.1
2023/01/13 15:00:00,61.4, 7.1
2023/01/13 15:10:00,61.5, 6.9
2023/01/13 15:20:00,61.4, 7.1
2023/01/13 15:30:00,61.2, 7.1
2023/01/13 15:40:00,61.1, 7.0
2023/01/13 15:50:00,61.0, 7.0
2023/01/13 16:00:00,60.9, 7.1
2023/01/13 16:10:00,60.7, 7.2
2023/01/13 16:20:00,60.4, 7.0
2023/01/13 16:30:00,60.0, 7.0
2023/01/13 16:40:00,59.8, 6.8
2023/01/13 16:50:00,59.5, 7.0
2023/01/13 17:00:00,59.2, 7.4
2023/01/13 17:10:00,59.0, 7.1
2023/01/13 17:20:00,58.7, 7.2
2023/01/13 17:30:00,58.4, 7.4
2023/01/13 17:40:00,58.3, 7.1
2023/01/13 17:50:00,58.1, 7.2
2023/01/13 18:00:00,57.7, 7.2
2023/01/13 18:10:00,57.3, 7.1
2023/01/13 18:20:00,57.2, 7.2
2023/01/13 18:30:00,57.1, 7.3
2023/01/13 18:40:00,56.8, 7.7
2023/01/13 18:50:00,56.7, 7.5
2023/01/13 19:00:00,56.5, 6.9
2023/01/13 19:10:00,56.4, 7.2
2023/01/13 19:20:00,56.0, 7.1
2023/01/13 19:30:00,55.9, 6.7
2023/01/13 19:40:00,55.9, 6.2
2023/01/13 19:50:00,55.7, 6.4
2023/01/13 20:00:00,55.6, 6.8
2023/01/13 20:10:00,55.3, 6.7
2023/01/13 20:20:00,55.2, 6.2
2023/01/13 20:30:00,55.1, 6.0
2023/01/13 20:40:00,55.1, 6.3
2023/01/13 20:50:00,55.1, 6.8
2023/01/13 21:00:00,55.0, 6.5
2023/01/13 21:10:00,55.0, 6.7
2023/01/13 21:20:00,54.9, 6.9
2023/01/13 21:30:00,54.8, 6.7
2023/01/13 21:40:00,54.8, 6.6
2023/01/13 21:50:00,54.7, 6.7
2023/01/13 22:00:00,54.6, 7.0
2023/01/13 22:10:00,54.4, 7.1
2023/01/13 22:20:00,54.1, 7.2
2023/01/13 22:30:00,54.0, 6.7
2023/01/13 22:40:00,53.5, 6.0
2023/01/13 22:50:00,53.0, 4.9
2023/01/13 23:00:00,52.6, 6.1
2023/01/13 23:10:00,52.6, 6.5
2023/01/13 23:20:00,52.6, 6.7
2023/01/13 23:30:00,52.7, 6.3
2023/01/13 23:40:00,52.7, 5.8
2023/01/13 23:50:00,52.7, 6.3
